EDT,Max TemperatureF,Mean TemperatureF,Min TemperatureF,Max Dew PointF,MeanDew PointF,Min DewpointF,Max Humidity, Mean Humidity, Min Humidity, Max Sea Level PressureIn, Mean Sea Level PressureIn, Min Sea Level PressureIn, Max VisibilityMiles, Mean VisibilityMiles, Min VisibilityMiles, Max Wind SpeedMPH, Mean Wind SpeedMPH, Max Gust SpeedMPH,PrecipitationIn, CloudCover, Events, WindDirDegrees
2014-4-1,60,44,28,35,31,26,92,61,35,30.15,30.07,29.98,10,10,10,8,2,,0.00,0,,165
2014-4-2,54,44,36,44,38,33,97,85,67,30.15,30.07,30.04,10,9,2,6,2,,0.03,2,Rain,168
2014-4-3,66,51,36,42,30,18,97,54,16,30.14,30.06,29.96,10,10,7,7,2,,0.06,1,Rain,4
2014-4-4,45,43,41,42,39,38,96,91,85,30.06,29.95,29.75,10,5,2,13,4,22,0.32,8,Rain,94
2014-4-5,54,46,36,41,34,23,96,70,38,30.09,29.85,29.72,10,9,5,21,5,29,0.00,5,,308
2014-4-6,61,44,26,31,22,16,84,46,17,30.21,30.16,30.10,10,10,10,8,4,,0.00,0,,295
2014-4-7,52,39,30,45,35,27,93,86,58,30.20,30.05,29.67,10,7,2,7,1,17,0.08,3,Rain,50
2014-4-8,64,54,46,55,44,32,97,73,41,29.64,29.50,29.42,10,7,1,15,4,28,0.02,5,Rain,287
2014-4-9,62,46,32,35,29,22,92,52,22,30.03,29.77,29.64,10,10,10,17,5,30,0.00,0,,327
2014-4-10,66,47,28,33,29,24,89,49,27,30.21,30.10,30.02,10,10,10,14,4,23,0.00,0,,193
2014-4-11,77,58,42,53,42,33,89,59,27,30.02,29.98,29.92,10,10,10,16,3,28,0.00,2,Rain,266
2014-4-12,73,58,42,52,39,29,93,58,20,30.22,30.14,30.01,10,9,2,12,3,16,0.00,1,,292
2014-4-13,82,62,43,54,47,37,82,60,34,30.18,30.08,29.95,10,10,10,13,4,23,0.00,2,,202
2014-4-14,79,68,62,56,55,53,78,63,47,30.00,29.92,29.82,10,10,10,17,9,28,0.00,1,,184
2014-4-15,66,64,62,63,60,55,94,87,73,29.82,29.66,29.52,10,7,0,15,9,25,0.22,7,Fog-Rain,164
2014-4-16,48,39,30,26,18,14,82,44,27,30.56,30.47,30.41,10,10,10,15,10,22,0.00,0,,349
2014-4-17,50,40,32,31,24,16,79,58,34,30.71,30.64,30.58,10,10,10,10,3,20,0.00,1,,91
2014-4-18,52,40,30,33,30,27,92,78,44,30.61,30.45,30.27,10,9,7,7,2,,0.00,3,,159
2014-4-19,68,50,33,36,27,17,93,48,15,30.34,30.26,30.22,10,10,8,15,4,21,0.00,0,,346
2014-4-20,59,47,35,32,26,20,76,42,30,30.48,30.41,30.33,10,10,9,15,5,22,0.00,0,,111
2014-4-21,70,48,28,42,27,16,89,51,14,30.31,30.08,29.87,10,10,9,7,3,,0.00,0,,241
2014-4-22,73,56,39,52,45,35,89,69,37,29.85,29.65,29.52,10,10,10,9,2,18,0.00,2,,195
2014-4-23,60,52,44,46,34,27,67,50,39,29.87,29.66,29.52,10,10,10,28,12,38,0.00,5,,309
2014-4-24,61,51,41,27,17,10,51,29,14,30.02,29.94,29.87,10,10,10,22,11,32,0.00,0,,312
2014-4-25,66,50,33,45,27,17,89,44,20,30.04,29.93,29.77,10,10,8,13,4,22,0.03,2,Rain,134
2014-4-26,69,56,45,53,44,35,93,75,33,29.88,29.74,29.70,10,8,2,9,6,20,0.48,6,Rain-Thunderstorm,338
2014-4-27,59,52,39,35,32,30,77,49,35,30.12,30.00,29.89,10,10,10,14,9,22,0.00,3,,334
2014-4-28,64,50,35,38,34,31,92,54,29,30.13,30.07,30.00,10,10,10,10,3,,0.00,0,,133
2014-4-29,52,48,43,41,38,37,86,73,57,30.38,30.28,30.11,10,10,6,14,8,28,0.13,8,Rain,113
2014-4-30,53,48,42,51,44,38,93,90,85,30.37,30.22,29.92,9,3,1,13,6,24,3.57,8,Rain,95